Time,TemperatureF,DewpointF,PressureIn,WindDirection,WindDirectionDegrees,WindSpeedMPH,WindSpeedGustMPH,Humidity,HourlyPrecipIn,Conditions,Clouds,dailyrainin,SoftwareType,DateUTC
2013-01-18 00:02:00,22.0,18.0,-100.00,ESE,115,6.0,7.0,81,0.00,,,-99.99,,2013-01-18 06:02:00,
2013-01-18 00:12:00,22.0,18.0,-100.00,SE,135,4.0,6.0,82,0.00,,,-99.99,,2013-01-18 06:12:00,
2013-01-18 00:22:00,22.0,17.0,-100.00,SE,130,4.0,6.0,83,0.00,,,-99.99,,2013-01-18 06:22:00,
2013-01-18 00:32:00,22.0,18.0,-100.00,SE,125,4.0,6.0,84,0.00,,,-99.99,,2013-01-18 06:32:00,
2013-01-18 00:43:00,22.0,18.0,-100.00,SE,125,4.0,6.0,84,0.00,,,-99.99,,2013-01-18 06:43:00,
2013-01-18 00:52:00,22.0,19.0,-100.00,SSE,150,6.0,7.0,85,0.00,,,-99.99,,2013-01-18 06:52:00,
2013-01-18 01:02:00,22.0,19.0,-100.00,SSE,150,6.0,7.0,85,0.00,,,-99.99,,2013-01-18 07:02:00,
2013-01-18 01:12:00,22.0,19.0,-100.00,SE,145,4.0,9.0,86,0.00,,,-99.99,,2013-01-18 07:12:00,
2013-01-18 01:22:00,23.0,19.0,-100.00,SE,130,6.0,8.0,86,0.00,,,-99.99,,2013-01-18 07:22:00,
2013-01-18 01:32:00,23.0,20.0,-100.00,SE,145,7.0,10.0,86,0.00,,,-99.99,,2013-01-18 07:32:00,
2013-01-18 01:42:00,23.0,20.0,-100.00,SE,145,7.0,10.0,86,0.00,,,-99.99,,2013-01-18 07:42:00,
2013-01-18 01:52:00,23.0,20.0,-100.00,SSE,155,6.0,12.0,85,0.00,,,-99.99,,2013-01-18 07:52:00,
2013-01-18 02:02:00,23.0,20.0,-100.00,SSE,155,6.0,12.0,85,0.00,,,-99.99,,2013-01-18 08:02:00,
2013-01-18 02:12:00,24.0,20.0,-100.00,SSE,150,6.0,11.0,84,0.00,,,-99.99,,2013-01-18 08:12:00,
2013-01-18 02:22:00,24.0,20.0,-100.00,SSE,150,8.0,12.0,84,0.00,,,-99.99,,2013-01-18 08:22:00,
2013-01-18 02:32:00,24.0,20.0,-100.00,SSE,150,8.0,15.0,84,0.00,,,-99.99,,2013-01-18 08:32:00,
2013-01-18 02:42:00,24.0,20.0,-100.00,SSE,150,8.0,15.0,84,0.00,,,-99.99,,2013-01-18 08:42:00,
2013-01-18 02:52:00,24.0,20.0,-100.00,SSE,150,10.0,16.0,84,0.00,,,-99.99,,2013-01-18 08:52:00,
2013-01-18 03:02:00,24.0,20.0,-100.00,SSE,150,10.0,16.0,84,0.00,,,-99.99,,2013-01-18 09:02:00,
2013-01-18 03:12:00,24.0,20.0,-100.00,SSE,155,9.0,16.0,84,0.00,,,-99.99,,2013-01-18 09:12:00,
2013-01-18 03:22:00,25.0,21.0,-100.00,SSE,165,13.0,19.0,84,0.00,,,-99.99,,2013-01-18 09:22:00,
2013-01-18 03:33:00,25.0,21.0,-100.00,SSE,165,14.0,19.0,83,0.00,,,-99.99,,2013-01-18 09:33:00,
2013-01-18 03:42:00,25.0,21.0,-100.00,SSE,165,14.0,19.0,83,0.00,,,-99.99,,2013-01-18 09:42:00,
2013-01-18 03:52:00,26.0,21.0,-100.00,South,170,12.0,18.0,83,0.00,,,-99.99,,2013-01-18 09:52:00,
2013-01-18 04:02:00,26.0,21.0,-100.00,South,170,12.0,18.0,83,0.00,,,-99.99,,2013-01-18 10:02:00,
2013-01-18 04:12:00,26.0,21.0,-100.00,South,170,15.0,19.0,82,0.00,,,-99.99,,2013-01-18 10:12:00,
2013-01-18 04:22:00,26.0,21.0,-100.00,South,170,12.0,19.0,83,0.00,,,-99.99,,2013-01-18 10:22:00,
2013-01-18 04:32:00,26.0,22.0,-100.00,South,175,11.0,18.0,84,0.00,,,-99.99,,2013-01-18 10:32:00,
2013-01-18 04:42:00,26.0,22.0,-100.00,South,175,11.0,18.0,84,0.00,,,-99.99,,2013-01-18 10:42:00,
2013-01-18 04:52:00,26.0,22.0,-100.00,South,170,15.0,21.0,85,0.00,,,-99.99,,2013-01-18 10:52:00,
2013-01-18 05:02:00,26.0,22.0,-100.00,South,170,15.0,21.0,85,0.00,,,-99.99,,2013-01-18 11:02:00,
2013-01-18 05:12:00,26.0,22.0,-100.00,South,175,15.0,20.0,85,0.00,,,-99.99,,2013-01-18 11:12:00,
2013-01-18 05:22:00,26.0,23.0,-100.00,South,170,16.0,21.0,86,0.00,,,-99.99,,2013-01-18 11:22:00,
2013-01-18 05:32:00,27.0,23.0,-100.00,South,185,12.0,20.0,86,0.00,,,-99.99,,2013-01-18 11:32:00,
2013-01-18 05:42:00,26.0,23.0,-100.00,South,175,11.0,19.0,86,0.00,,,-99.99,,2013-01-18 11:42:00,
2013-01-18 05:52:00,26.0,23.0,-100.00,South,175,15.0,19.0,86,0.00,,,-99.99,,2013-01-18 11:52:00,
2013-01-18 06:02:00,26.0,23.0,-100.00,South,175,15.0,19.0,86,0.00,,,-99.99,,2013-01-18 12:02:00,
2013-01-18 06:12:00,26.0,23.0,-100.00,South,175,15.0,19.0,87,0.00,,,-99.99,,2013-01-18 12:12:00,
2013-01-18 06:22:00,26.0,23.0,-100.00,South,175,12.0,17.0,88,0.00,,,-99.99,,2013-01-18 12:22:00,
2013-01-18 06:33:00,26.0,23.0,-100.00,SSE,165,10.0,18.0,88,0.00,,,-99.99,,2013-01-18 12:33:00,
2013-01-18 06:42:00,26.0,23.0,-100.00,South,170,11.0,18.0,88,0.00,,,-99.99,,2013-01-18 12:42:00,
2013-01-18 06:52:00,26.0,23.0,-100.00,South,175,13.0,17.0,89,0.00,,,-99.99,,2013-01-18 12:52:00,
2013-01-18 07:03:00,26.0,23.0,-100.00,South,175,13.0,17.0,89,0.00,,,-99.99,,2013-01-18 13:03:00,
2013-01-18 07:12:00,26.0,24.0,-100.00,SSE,165,12.0,16.0,89,0.00,,,-99.99,,2013-01-18 13:12:00,
2013-01-18 07:23:00,27.0,24.0,-100.00,South,180,11.0,16.0,89,0.00,,,-99.99,,2013-01-18 13:23:00,
2013-01-18 07:33:00,28.0,26.0,-100.00,South,180,7.0,16.0,88,0.00,,,-99.99,,2013-01-18 13:33:00,
2013-01-18 07:43:00,28.0,26.0,-100.00,South,180,7.0,16.0,88,0.00,,,-99.99,,2013-01-18 13:43:00,
2013-01-18 07:53:00,30.0,27.0,-100.00,South,190,7.0,14.0,85,0.00,,,-99.99,,2013-01-18 13:53:00,
2013-01-18 08:03:00,30.0,27.0,-100.00,South,190,7.0,14.0,85,0.00,,,-99.99,,2013-01-18 14:03:00,
2013-01-18 08:12:00,31.0,27.0,-100.00,SSW,205,9.0,21.0,83,0.00,,,-99.99,,2013-01-18 14:12:00,
2013-01-18 08:22:00,32.0,27.0,-100.00,SW,215,12.0,19.0,80,0.00,,,-99.99,,2013-01-18 14:22:00,
2013-01-18 08:33:00,33.0,27.0,-100.00,SSW,205,9.0,21.0,78,0.00,,,-99.99,,2013-01-18 14:33:00,
2013-01-18 08:42:00,33.0,27.0,-100.00,SSW,205,9.0,21.0,78,0.00,,,-99.99,,2013-01-18 14:42:00,
2013-01-18 08:53:00,33.0,27.0,-100.00,SSW,210,10.0,21.0,77,0.00,,,-99.99,,2013-01-18 14:53:00,
2013-01-18 09:03:00,33.0,27.0,-100.00,SSW,210,10.0,21.0,77,0.00,,,-99.99,,2013-01-18 15:03:00,
2013-01-18 09:12:00,34.0,27.0,-100.00,SSW,210,11.0,20.0,76,0.00,,,-99.99,,2013-01-18 15:12:00,
2013-01-18 09:23:00,34.0,27.0,-100.00,SSW,210,9.0,18.0,75,0.00,,,-99.99,,2013-01-18 15:23:00,
2013-01-18 09:33:00,35.0,27.0,-100.00,SW,215,11.0,22.0,74,0.00,,,-99.99,,2013-01-18 15:33:00,
2013-01-18 09:43:00,35.0,27.0,-100.00,SW,215,11.0,22.0,74,0.00,,,-99.99,,2013-01-18 15:43:00,
2013-01-18 09:53:00,37.0,28.0,-100.00,SSW,210,12.0,21.0,68,0.00,,,-99.99,,2013-01-18 15:53:00,
2013-01-18 10:03:00,37.0,28.0,-100.00,SSW,210,12.0,21.0,68,0.00,,,-99.99,,2013-01-18 16:03:00,
2013-01-18 10:12:00,38.0,28.0,-100.00,SW,215,12.0,21.0,66,0.00,,,-99.99,,2013-01-18 16:12:00,
2013-01-18 10:23:00,38.0,28.0,-100.00,SW,220,13.0,22.0,65,0.00,,,-99.99,,2013-01-18 16:23:00,
2013-01-18 10:33:00,39.0,28.0,-100.00,SW,215,11.0,23.0,62,0.00,,,-99.99,,2013-01-18 16:33:00,
2013-01-18 10:42:00,39.0,28.0,-100.00,SW,215,11.0,23.0,62,0.00,,,-99.99,,2013-01-18 16:42:00,
2013-01-18 10:52:00,40.0,28.0,-100.00,SW,220,14.0,23.0,61,0.00,,,-99.99,,2013-01-18 16:52:00,
2013-01-18 11:03:00,40.0,28.0,-100.00,SW,220,14.0,23.0,61,0.00,,,-99.99,,2013-01-18 17:03:00,
2013-01-18 11:13:00,40.0,28.0,-100.00,SW,230,16.0,24.0,60,0.00,,,-99.99,,2013-01-18 17:13:00,
2013-01-18 11:23:00,41.0,28.0,-100.00,SW,225,13.0,23.0,60,0.00,,,-99.99,,2013-01-18 17:23:00,
2013-01-18 11:33:00,41.0,28.0,-100.00,SW,220,12.0,24.0,59,0.00,,,-99.99,,2013-01-18 17:33:00,
2013-01-18 11:42:00,41.0,28.0,-100.00,SW,220,12.0,24.0,59,0.00,,,-99.99,,2013-01-18 17:42:00,
2013-01-18 11:53:00,42.0,29.0,-100.00,SW,230,15.0,27.0,58,0.00,,,-99.99,,2013-01-18 17:53:00,
2013-01-18 12:03:00,42.0,29.0,-100.00,SW,230,15.0,27.0,58,0.00,,,-99.99,,2013-01-18 18:03:00,
2013-01-18 12:12:00,42.0,29.0,-100.00,SW,230,12.0,29.0,58,0.00,,,-99.99,,2013-01-18 18:12:00,
2013-01-18 12:23:00,42.0,29.0,-100.00,SW,225,16.0,25.0,58,0.00,,,-99.99,,2013-01-18 18:23:00,
2013-01-18 12:33:00,42.0,29.0,-100.00,WSW,240,17.0,27.0,58,0.00,,,-99.99,,2013-01-18 18:33:00,
2013-01-18 12:43:00,42.0,29.0,-100.00,WSW,240,17.0,27.0,58,0.00,,,-99.99,,2013-01-18 18:43:00,
2013-01-18 12:52:00,44.0,30.0,-100.00,SW,225,14.0,20.0,57,0.00,,,-99.99,,2013-01-18 18:52:00,
2013-01-18 13:03:00,44.0,30.0,-100.00,SW,225,14.0,20.0,57,0.00,,,-99.99,,2013-01-18 19:03:00,
2013-01-18 13:12:00,44.0,29.0,-100.00,SW,225,13.0,23.0,57,0.00,,,-99.99,,2013-01-18 19:12:00,
2013-01-18 13:22:00,44.0,29.0,-100.00,SW,235,16.0,26.0,56,0.00,,,-99.99,,2013-01-18 19:22:00,
2013-01-18 13:33:00,44.0,30.0,-100.00,SW,230,15.0,21.0,57,0.00,,,-99.99,,2013-01-18 19:33:00,
2013-01-18 13:42:00,44.0,30.0,-100.00,SW,230,15.0,21.0,57,0.00,,,-99.99,,2013-01-18 19:42:00,
2013-01-18 13:52:00,45.0,30.0,-100.00,SW,235,13.0,22.0,56,0.00,,,-99.99,,2013-01-18 19:52:00,
2013-01-18 14:03:00,45.0,30.0,-100.00,SW,235,13.0,22.0,56,0.00,,,-99.99,,2013-01-18 20:03:00,
2013-01-18 14:12:00,45.0,31.0,-100.00,SW,235,11.0,22.0,56,0.00,,,-99.99,,2013-01-18 20:12:00,
2013-01-18 14:23:00,45.0,31.0,-100.00,WSW,240,11.0,18.0,56,0.00,,,-99.99,,2013-01-18 20:23:00,
2013-01-18 14:33:00,45.0,30.0,-100.00,SW,215,15.0,21.0,56,0.00,,,-99.99,,2013-01-18 20:33:00,
2013-01-18 14:42:00,45.0,30.0,-100.00,SW,215,15.0,21.0,56,0.00,,,-99.99,,2013-01-18 20:42:00,
2013-01-18 14:52:00,45.0,31.0,-100.00,SW,235,9.0,21.0,56,0.00,,,-99.99,,2013-01-18 20:52:00,
2013-01-18 15:03:00,45.0,31.0,-100.00,SW,235,9.0,21.0,56,0.00,,,-99.99,,2013-01-18 21:03:00,
2013-01-18 15:12:00,45.0,30.0,-100.00,SW,225,15.0,21.0,56,0.00,,,-99.99,,2013-01-18 21:12:00,
2013-01-18 15:22:00,45.0,31.0,-100.00,WSW,240,12.0,21.0,57,0.00,,,-99.99,,2013-01-18 21:22:00,
2013-01-18 15:33:00,45.0,30.0,-100.00,SW,230,12.0,22.0,57,0.00,,,-99.99,,2013-01-18 21:33:00,
2013-01-18 15:42:00,45.0,30.0,-100.00,SW,230,12.0,22.0,57,0.00,,,-99.99,,2013-01-18 21:42:00,
2013-01-18 15:53:00,44.0,31.0,-100.00,WSW,250,8.0,16.0,58,0.00,,,-99.99,,2013-01-18 21:53:00,
2013-01-18 16:03:00,44.0,31.0,-100.00,WSW,250,8.0,16.0,58,0.00,,,-99.99,,2013-01-18 22:03:00,
2013-01-18 16:12:00,44.0,31.0,-100.00,WSW,245,9.0,16.0,60,0.00,,,-99.99,,2013-01-18 22:12:00,
2013-01-18 16:22:00,44.0,31.0,-100.00,WSW,250,9.0,17.0,61,0.00,,,-99.99,,2013-01-18 22:22:00,
2013-01-18 16:32:00,43.0,31.0,-100.00,WSW,250,9.0,12.0,61,0.00,,,-99.99,,2013-01-18 22:32:00,
2013-01-18 16:42:00,43.0,31.0,-100.00,WSW,240,7.0,12.0,62,0.00,,,-99.99,,2013-01-18 22:42:00,
2013-01-18 16:52:00,42.0,31.0,-100.00,WSW,245,9.0,14.0,63,0.00,,,-99.99,,2013-01-18 22:52:00,
2013-01-18 17:03:00,42.0,31.0,-100.00,WSW,245,9.0,14.0,63,0.00,,,-99.99,,2013-01-18 23:03:00,
2013-01-18 17:12:00,42.0,31.0,-100.00,WSW,245,9.0,14.0,64,0.00,,,-99.99,,2013-01-18 23:12:00,
2013-01-18 17:22:00,41.0,31.0,-100.00,WSW,240,10.0,15.0,65,0.00,,,-99.99,,2013-01-18 23:22:00,
2013-01-18 17:33:00,40.0,31.0,-100.00,West,260,9.0,14.0,69,0.00,,,-99.99,,2013-01-18 23:33:00,
2013-01-18 17:42:00,40.0,31.0,-100.00,West,260,9.0,14.0,69,0.00,,,-99.99,,2013-01-18 23:42:00,
2013-01-18 17:52:00,39.0,31.0,-100.00,WSW,245,4.0,10.0,72,0.00,,,-99.99,,2013-01-18 23:52:00,
2013-01-18 18:02:00,39.0,31.0,-100.00,WSW,245,4.0,10.0,72,0.00,,,-99.99,,2013-01-19 00:02:00,
2013-01-18 18:12:00,39.0,31.0,-100.00,SW,235,7.0,12.0,74,0.00,,,-99.99,,2013-01-19 00:12:00,
2013-01-18 18:22:00,38.0,31.0,-100.00,SW,235,6.0,11.0,74,0.00,,,-99.99,,2013-01-19 00:22:00,
2013-01-18 18:33:00,38.0,31.0,-100.00,WSW,245,6.0,12.0,76,0.00,,,-99.99,,2013-01-19 00:33:00,
2013-01-18 18:42:00,38.0,31.0,-100.00,WSW,245,6.0,12.0,76,0.00,,,-99.99,,2013-01-19 00:42:00,
2013-01-18 18:53:00,37.0,31.0,-100.00,SW,230,7.0,12.0,77,0.00,,,-99.99,,2013-01-19 00:53:00,
2013-01-18 19:02:00,37.0,31.0,-100.00,SW,230,7.0,12.0,77,0.00,,,-99.99,,2013-01-19 01:02:00,
2013-01-18 19:12:00,37.0,31.0,-100.00,WSW,240,7.0,11.0,79,0.00,,,-99.99,,2013-01-19 01:12:00,
2013-01-18 19:22:00,37.0,31.0,-100.00,SW,235,7.0,12.0,79,0.00,,,-99.99,,2013-01-19 01:22:00,
2013-01-18 19:32:00,37.0,31.0,-100.00,SW,235,8.0,12.0,80,0.00,,,-99.99,,2013-01-19 01:32:00,
2013-01-18 19:42:00,37.0,31.0,-100.00,SW,235,8.0,12.0,80,0.00,,,-99.99,,2013-01-19 01:42:00,
2013-01-18 19:52:00,36.0,31.0,-100.00,WSW,245,7.0,10.0,81,0.00,,,-99.99,,2013-01-19 01:52:00,
2013-01-18 20:02:00,36.0,31.0,-100.00,WSW,245,7.0,10.0,81,0.00,,,-99.99,,2013-01-19 02:02:00,
2013-01-18 20:12:00,36.0,31.0,-100.00,WSW,250,7.0,12.0,81,0.00,,,-99.99,,2013-01-19 02:12:00,
2013-01-18 20:22:00,36.0,31.0,-100.00,SW,230,6.0,10.0,82,0.00,,,-99.99,,2013-01-19 02:22:00,
2013-01-18 20:33:00,35.0,31.0,-100.00,West,270,6.0,8.0,83,0.00,,,-99.99,,2013-01-19 02:33:00,
2013-01-18 20:42:00,35.0,31.0,-100.00,West,270,6.0,8.0,83,0.00,,,-99.99,,2013-01-19 02:42:00,
2013-01-18 20:52:00,34.0,30.0,-100.00,SW,230,3.0,9.0,84,0.00,,,-99.99,,2013-01-19 02:52:00,
2013-01-18 21:03:00,34.0,30.0,-100.00,SW,230,3.0,9.0,84,0.00,,,-99.99,,2013-01-19 03:03:00,
2013-01-18 21:12:00,34.0,30.0,-100.00,SW,220,4.0,6.0,86,0.00,,,-99.99,,2013-01-19 03:12:00,
2013-01-18 21:22:00,33.0,30.0,-100.00,SW,230,4.0,6.0,87,0.00,,,-99.99,,2013-01-19 03:22:00,
2013-01-18 21:33:00,33.0,30.0,-100.00,SW,220,5.0,7.0,89,0.00,,,-99.99,,2013-01-19 03:33:00,
2013-01-18 21:43:00,33.0,31.0,-100.00,SW,230,6.0,7.0,90,0.00,,,-99.99,,2013-01-19 03:43:00,
2013-01-18 21:52:00,33.0,31.0,-100.00,SW,230,6.0,7.0,91,0.00,,,-99.99,,2013-01-19 03:52:00,
2013-01-18 22:02:00,33.0,31.0,-100.00,SW,230,6.0,7.0,91,0.00,,,-99.99,,2013-01-19 04:02:00,
2013-01-18 22:12:00,33.0,31.0,-100.00,SW,230,6.0,8.0,91,0.00,,,-99.99,,2013-01-19 04:12:00,
2013-01-18 22:22:00,33.0,31.0,-100.00,WSW,240,6.0,9.0,91,0.00,,,-99.99,,2013-01-19 04:22:00,
2013-01-18 22:32:00,33.0,30.0,-100.00,SW,230,6.0,7.0,91,0.00,,,-99.99,,2013-01-19 04:32:00,
2013-01-18 22:42:00,33.0,30.0,-100.00,SW,230,6.0,7.0,91,0.00,,,-99.99,,2013-01-19 04:42:00,
2013-01-18 22:52:00,32.0,30.0,-100.00,SW,230,4.0,7.0,92,0.00,,,-99.99,,2013-01-19 04:52:00,
2013-01-18 23:03:00,32.0,30.0,-100.00,SW,230,4.0,7.0,92,0.00,,,-99.99,,2013-01-19 05:03:00,
2013-01-18 23:12:00,32.0,30.0,-100.00,SW,230,4.0,6.0,92,0.00,,,-99.99,,2013-01-19 05:12:00,
2013-01-18 23:22:00,33.0,31.0,-100.00,SW,215,4.0,6.0,92,0.00,,,-99.99,,2013-01-19 05:22:00,
2013-01-18 23:33:00,33.0,31.0,-100.00,SW,220,4.0,6.0,92,0.00,,,-99.99,,2013-01-19 05:33:00,
2013-01-18 23:42:00,33.0,31.0,-100.00,SW,220,4.0,6.0,92,0.00,,,-99.99,,2013-01-19 05:42:00,
2013-01-18 23:52:00,33.0,31.0,-100.00,SW,225,3.0,6.0,92,0.00,,,-99.99,,2013-01-19 05:52:00,